Location: Franzen
(48.6167°N, 15.3833°E)
Time: 10:04:14
(UTC+00:00)

Cosmos 2227 - Pass Details

Date: 22 April 2021
Orbit: 835 x 861 km, 71.0° (Epoch: 16 May)

Event Time Altitude Azimuth Distance (km) Brightness Sun altitude
Exits shadow 21:40:48 70° 214° (SW) 916 4.1 -26.6°
Maximum altitude 21:41:30 87° 296° (WNW) 868 4.1 -26.6°
Drops below altitude 10° 21:47:18 10° 28° (NNE) 2,504 7.2 -27.0°
Sets 21:49:46 0° 29° (NNE) 3,442 8.0 -27.1°
